Crosby, ND

5:10 AM CDT on May 21, 2018 (GMT -0500)
Crosby

Weather History for KD50 - January, 2013

Change the Weather History Date:

Tuesday, January 1, 2013

  Actual Average (KISN) Record (KISN)
Temperature  
Mean Temperature 18 °F -  
Max Temperature 28 °F 19 °F 48 °F (1998)
Min Temperature 8 °F -1 °F -33 °F (1982)
Degree Days  
Heating Degree Days 47    
Moisture  
Dew Point 17 °F    
Average Humidity 90    
Maximum Humidity 100    
Minimum Humidity 85    
Precipitation  
Precipitation 0.15 in - - ()
Sea Level Pressure  
Sea Level Pressure 29.93 in    
Wind  
Wind Speed 15 mph (WSW)    
Max Wind Speed 25 mph    
Max Gust Speed 31 mph    
Visibility 7 miles    
Events Snow    
Averages and records for this station are not official NWS values.
T = Trace of Precipitation, MM = Missing Value Source: NWS Daily Summary

Daily Weather History Graph

Daily Weather History Graph

Search for Another Location

Airport or City:

Astronomy

Jan. 01, 2013 Rise Set
Actual Time 8:46 AM CST 5:07 PM CST
Civil Twilight 8:09 AM CST 5:44 PM CST
Nautical Twilight 7:29 AM CST 6:24 PM CST
Astronomical Twilight 6:51 AM CST 7:02 PM CST
Moon 10:06 PM CST (1/1) 10:37 AM CST (1/1)
Length of Visible Light 9h 34m
Length of Day
8h 20m
Waning Gibbous, 83% of the Moon is Illuminated
Jan 1
Waning Gibbous
Jan 4
Last Quarter
Jan 11
New
Jan 18
First Quarter
Jan 26
Full

Hourly Weather History & Observations

Time (CST) Temp. Windchill Dew Point Humidity Pressure Visibility Wind Dir Wind Speed Gust Speed Precip Events Conditions
12:15 AM 15.8 °F 2.7 °F 14.0 °F 93% 30.03 in 10.0 mi SSW 11.5 mph - N/A   Overcast
12:35 AM 15.8 °F 2.7 °F 14.0 °F 93% 30.03 in 10.0 mi SW 11.5 mph - N/A   Overcast
12:55 AM 17.6 °F 4.3 °F 15.8 °F 93% 30.03 in 1.8 mi SW 12.7 mph - N/A   Overcast
1:15 AM 15.8 °F 1.4 °F 15.8 °F 100% 30.03 in 2.0 mi SW 13.8 mph - N/A   Overcast
1:35 AM 17.6 °F 4.3 °F 15.8 °F 93% 30.03 in 2.5 mi SW 12.7 mph - N/A   Overcast
2:15 AM 15.8 °F 8.6 °F 14.0 °F 93% 30.03 in 3.0 mi SSW 4.6 mph - N/A   Overcast
2:35 AM 15.8 °F 5.1 °F 14.0 °F 93% 30.03 in 3.0 mi SW 8.1 mph - N/A   Overcast
2:55 AM 14.0 °F -1.4 °F 14.0 °F 100% 30.02 in 3.0 mi SW 15.0 mph - N/A   Overcast
3:15 AM 15.8 °F 1.4 °F 14.0 °F 93% 30.02 in 4.0 mi SW 13.8 mph - N/A   Overcast
3:35 AM 15.8 °F 2.7 °F 14.0 °F 93% 30.02 in 2.0 mi SW 11.5 mph 17.3 mph N/A   Overcast
3:55 AM 14.0 °F 2.0 °F 12.2 °F 93% 30.01 in 2.5 mi SW 9.2 mph - N/A   Overcast
4:15 AM 14.0 °F -1.4 °F 10.4 °F 86% 30.00 in 2.0 mi SW 15.0 mph 19.6 mph N/A   Overcast
4:35 AM 14.0 °F -1.4 °F 10.4 °F 86% 30.01 in 1.8 mi SW 15.0 mph - N/A   Overcast
4:55 AM 12.2 °F -3.1 °F 10.4 °F 92% 30.01 in 2.0 mi SW 13.8 mph - N/A   Overcast
5:15 AM 10.4 °F 0.8 °F 8.6 °F 92% 30.02 in 7.0 mi SW 5.8 mph - N/A   Overcast
5:35 AM 10.4 °F -4.8 °F 6.8 °F 85% 30.01 in 3.0 mi SSW 12.7 mph - N/A   Overcast
5:55 AM 8.6 °F -7.7 °F 6.8 °F 92% 30.00 in 3.0 mi SW 13.8 mph - N/A   Overcast
6:15 AM 8.6 °F -7.0 °F 6.8 °F 92% 29.99 in - SW 12.7 mph - N/A   Overcast
6:35 AM 10.4 °F -6.0 °F 6.8 °F 85% 29.97 in 3.0 mi SSW 15.0 mph 21.9 mph N/A   Overcast
6:55 AM 10.4 °F -8.6 °F 6.8 °F 85% 29.96 in 3.0 mi SSW 20.7 mph - N/A   Overcast
7:15 AM 10.4 °F -2.4 °F 8.6 °F 92% 29.97 in 2.0 mi SSW 9.2 mph - N/A   Overcast
7:35 AM 10.4 °F -5.4 °F 8.6 °F 92% 29.96 in 2.5 mi SW 13.8 mph 17.3 mph N/A   Overcast
7:55 AM 10.4 °F -6.0 °F 8.6 °F 92% 29.96 in - SW 15.0 mph - N/A   Overcast
8:15 AM 10.4 °F -7.7 °F 8.6 °F 92% 29.94 in - SSW 18.4 mph - N/A   Overcast
8:35 AM 10.4 °F -6.0 °F 8.6 °F 92% 29.93 in - SSW 15.0 mph - N/A   Overcast
9:15 AM 10.4 °F -7.7 °F 8.6 °F 92% 29.93 in - SSW 18.4 mph 21.9 mph N/A   Overcast
9:35 AM 10.4 °F -7.2 °F 8.6 °F 92% 29.93 in 2.5 mi SW 17.3 mph - N/A   Overcast
9:55 AM 10.4 °F -7.2 °F 8.6 °F 92% 29.93 in 10.0 mi SW 17.3 mph 23.0 mph N/A   Mostly Cloudy
10:15 AM 12.2 °F -4.3 °F 8.6 °F 85% 29.93 in 10.0 mi SSW 16.1 mph - N/A   Mostly Cloudy
10:35 AM 12.2 °F -4.8 °F 8.6 °F 85% 29.93 in 10.0 mi SSW 17.3 mph - N/A   Overcast
10:55 AM 14.0 °F -0.2 °F 10.4 °F 86% 29.93 in 10.0 mi SSW 12.7 mph - N/A   Overcast
11:15 AM 15.8 °F 1.4 °F 12.2 °F 86% 29.94 in 10.0 mi SW 13.8 mph - N/A   Overcast
11:35 AM 17.6 °F 3.7 °F 14.0 °F 86% 29.93 in 10.0 mi SW 13.8 mph - N/A   Overcast
12:15 PM 17.6 °F 3.7 °F 14.0 °F 86% 29.92 in 10.0 mi WSW 13.8 mph - N/A Snow Light Snow
12:35 PM 19.4 °F 5.5 °F 15.8 °F 86% 29.90 in 5.0 mi WSW 15.0 mph - 0.01 in Snow Light Snow
12:55 PM 19.4 °F 7.2 °F 15.8 °F 86% 29.90 in 2.0 mi SW 11.5 mph - 0.06 in Snow Light Snow
1:15 PM 19.4 °F 6.6 °F 17.6 °F 93% 29.88 in 10.0 mi WSW 12.7 mph - N/A Snow Light Snow
1:35 PM 23.0 °F 10.1 °F 19.4 °F 86% 29.88 in 3.0 mi WSW 15.0 mph - 0.01 in Snow Light Snow
1:55 PM 23.0 °F 10.1 °F 19.4 °F 86% 29.87 in 3.0 mi WSW 15.0 mph - 0.07 in Snow Light Snow
2:15 PM 24.8 °F 12.4 °F 21.2 °F 86% 29.86 in 3.0 mi WSW 15.0 mph - N/A Snow Light Snow
2:35 PM 24.8 °F 11.9 °F 23.0 °F 93% 29.86 in 2.5 mi WSW 16.1 mph - 0.02 in Snow Light Snow
3:15 PM 23.0 °F 10.1 °F 21.2 °F 93% 29.86 in 10.0 mi WSW 15.0 mph - N/A   Partly Cloudy
3:35 PM 24.8 °F 12.4 °F 23.0 °F 93% 29.86 in 10.0 mi WSW 15.0 mph - N/A   Mostly Cloudy
3:55 PM 24.8 °F 12.4 °F 23.0 °F 93% 29.87 in 10.0 mi West 15.0 mph - N/A   Overcast
4:15 PM 26.6 °F 12.4 °F 24.8 °F 93% 29.86 in 10.0 mi West 21.9 mph - N/A   Overcast
4:35 PM 26.6 °F 14.3 °F 24.8 °F 93% 29.87 in 10.0 mi West 16.1 mph - N/A   Overcast
4:55 PM 26.6 °F 13.8 °F 24.8 °F 93% 29.88 in 10.0 mi West 17.3 mph - N/A   Overcast
5:15 PM 28.4 °F 17.0 °F 24.8 °F 86% 29.87 in 10.0 mi West 15.0 mph - N/A   Overcast
5:35 PM 28.4 °F 15.8 °F 24.8 °F 86% 29.88 in 10.0 mi WNW 18.4 mph - N/A   Overcast
5:55 PM 26.6 °F 13.1 °F 23.0 °F 86% 29.88 in 10.0 mi WNW 19.6 mph - N/A   Overcast
6:15 PM 26.6 °F 12.0 °F 23.0 °F 86% 29.88 in 10.0 mi WNW 23.0 mph 27.6 mph N/A   Mostly Cloudy
6:35 PM 24.8 °F 9.6 °F 23.0 °F 93% 29.88 in 10.0 mi WNW 23.0 mph - N/A   Partly Cloudy
6:55 PM 24.8 °F 10.0 °F 21.2 °F 86% 29.88 in 10.0 mi WNW 21.9 mph - N/A   Clear
7:15 PM 24.8 °F 10.7 °F 21.2 °F 86% 29.88 in 10.0 mi WNW 19.6 mph - N/A   Scattered Clouds
7:35 PM 24.8 °F 10.0 °F 23.0 °F 93% 29.88 in 10.0 mi WNW 21.9 mph 26.5 mph N/A   Mostly Cloudy
7:55 PM 26.6 °F 12.7 °F 23.0 °F 86% 29.88 in 10.0 mi West 20.7 mph - N/A   Mostly Cloudy
8:15 PM 26.6 °F 12.7 °F 23.0 °F 86% 29.88 in 10.0 mi WNW 20.7 mph - N/A   Overcast
8:35 PM 26.6 °F 12.4 °F 23.0 °F 86% 29.89 in 10.0 mi WNW 21.9 mph 27.6 mph N/A   Overcast
8:55 PM 28.4 °F 14.1 °F 24.8 °F 86% 29.89 in 10.0 mi WNW 24.2 mph 31.1 mph N/A   Overcast
9:15 PM 28.4 °F 13.8 °F 24.8 °F 86% 29.88 in 10.0 mi WNW 25.3 mph 29.9 mph N/A   Overcast
9:35 PM 28.4 °F 14.4 °F 24.8 °F 86% 29.89 in 10.0 mi WNW 23.0 mph - N/A   Overcast
9:55 PM 28.4 °F 14.7 °F 24.8 °F 86% 29.89 in 10.0 mi WNW 21.9 mph 27.6 mph N/A   Overcast
10:15 PM 28.4 °F 14.4 °F 24.8 °F 86% 29.89 in 10.0 mi WNW 23.0 mph 28.8 mph N/A   Overcast
10:35 PM 28.4 °F 15.1 °F 26.6 °F 93% 29.90 in 10.0 mi NW 20.7 mph 26.5 mph N/A   Overcast
10:55 PM 28.4 °F 14.7 °F 26.6 °F 93% 29.90 in 10.0 mi NW 21.9 mph 27.6 mph N/A   Overcast
11:15 PM 28.4 °F 14.7 °F 26.6 °F 93% 29.91 in 10.0 mi NW 21.9 mph 28.8 mph N/A   Overcast
11:35 PM 28.4 °F 14.7 °F 26.6 °F 93% 29.91 in 8.0 mi NW 21.9 mph 26.5 mph N/A   Overcast
11:55 PM 28.4 °F 14.7 °F 26.6 °F 93% 29.91 in 10.0 mi NW 21.9 mph - N/A   Overcast